This is the latest recevied weather packets stored in our database for station/object KI5MKI. If no packets are shown the sender has not sent any weather packets the latest 10 day(s).
| Time | Temp. | Humidity | Pressure | Rain* | Wind** | Luminosity | Snow |
|---|---|---|---|---|---|---|---|
| 1777921385 | 25° C | 48% | 1012.1 hPa | 0 mm | - | 920 W/m² | - |
| 1777921082 | 24.44° C | 48% | 1011.9 hPa | 0 mm | - | 932 W/m² | - |
| 1777920779 | 24.44° C | 51% | 1012.2 hPa | 0 mm | - | 952 W/m² | - |
| 1777920474 | 24.44° C | 47% | 1012.1 hPa | 0 mm | - | 728 W/m² | - |
| 1777920170 | 24.44° C | 46% | 1012.1 hPa | 0 mm | - | 668 W/m² | - |
| 1777919867 | 24.44° C | 47% | 1012.3 hPa | 0 mm | - | 647 W/m² | - |
| 1777919563 | 24.44° C | 46% | 1012.4 hPa | 0 mm | - | 955 W/m² | - |
| 1777919262 | 24.44° C | 49% | 1012.4 hPa | 0 mm | - | 729 W/m² | - |
| 1777918958 | 23.89° C | 46% | 1012.5 hPa | 0 mm | - | 940 W/m² | - |
| 1777918656 | 23.89° C | 51% | 1012.7 hPa | 0 mm | - | 673 W/m² | - |
| 1777918353 | 23.89° C | 47% | 1012.7 hPa | 0 mm | - | 764 W/m² | - |
| 1777918052 | 23.89° C | 47% | 1012.8 hPa | 0 mm | - | 843 W/m² | - |
| 1777917751 | 23.89° C | 48% | 1012.8 hPa | 0 mm | - | 887 W/m² | - |
| 1777917448 | 23.89° C | 47% | 1013.2 hPa | 0 mm | - | 853 W/m² | - |
| 1777917144 | 23.89° C | 48% | 1013.1 hPa | 0 mm | - | 943 W/m² | - |
| 1777916842 | 23.89° C | 49% | 1013.2 hPa | 0 mm | - | 833 W/m² | - |
| 1777916540 | 23.89° C | 52% | 1013.2 hPa | 0 mm | - | 879 W/m² | - |
| 1777916236 | 23.33° C | 49% | 1013.3 hPa | 0 mm | - | 791 W/m² | - |
| 1777915934 | 23.33° C | 50% | 1013.4 hPa | 0 mm | - | 641 W/m² | - |
| 1777915630 | 23.33° C | 52% | 1013.5 hPa | 0 mm | - | 742 W/m² | - |
| 1777915326 | 23.33° C | 52% | 1013.5 hPa | 0 mm | - | 852 W/m² | - |
| 1777915023 | 23.33° C | 50% | 1013.6 hPa | 0 mm | - | 760 W/m² | - |
| 1777914719 | 23.33° C | 49% | 1013.6 hPa | 0 mm | - | 836 W/m² | - |
| 1777914416 | 23.89° C | 48% | 1013.7 hPa | 0 mm | - | 901 W/m² | - |
| 1777914114 | 23.33° C | 48% | 1014 hPa | 0 mm | - | 922 W/m² | - |
* Rain latest hour (hover to see other rain measurements)
** Current wind speed in m/s (hover to see current wind gust speed)